Provincetown, MA

1:42 AM EDT on March 23, 2017 (GMT -0400)
Provincetown Municipal

Weather History for KPVC - October, 2012

Change the Weather History Date:

Sunday, October 21, 2012

  Actual Average Record
Temperature  
Mean Temperature 56 °F -  
Max Temperature 60 °F 55 °F 73 °F (2016)
Min Temperature 51 °F 44 °F 35 °F (2002)
Degree Days  
Heating Degree Days 10    
Growing Degree Days 6 (Base 50)    
Moisture  
Dew Point 45 °F    
Average Humidity 67    
Maximum Humidity 88    
Minimum Humidity 55    
Precipitation  
Precipitation 0.00 in - - ()
Sea Level Pressure  
Sea Level Pressure 29.85 in    
Wind  
Wind Speed 12 mph (West)    
Max Wind Speed 17 mph    
Max Gust Speed 21 mph    
Visibility 10 miles    
Events      
Averages and records for this station are not official NWS values.
T = Trace of Precipitation, MM = Missing Value Source: NWS Daily Summary

Daily Weather History Graph

Daily Weather History Graph

Search for Another Location

Airport or City:

Trip Planner

Search our weather history database for the weather conditions in past years. The results will help you decide how hot, cold, wet, or windy it might be!

Date:

Astronomy

Oct. 21, 2012 Rise Set
Actual Time 7:00 AM EDT 5:49 PM EDT
Civil Twilight 6:32 AM EDT 6:17 PM EDT
Nautical Twilight 5:59 AM EDT 6:50 PM EDT
Astronomical Twilight 5:27 AM EDT 7:22 PM EDT
Moon 1:21 PM EDT (10/21) 11:38 PM EDT (10/21)
Length of Visible Light 11h 45m
Length of Day
10h 48m
Waxing Crescent, 45% of the Moon is Illuminated
Oct 21
Waxing Crescent
Oct 21
First Quarter
Oct 29
Full
Nov 6
Last Quarter
Nov 13
New

Hourly Weather History & Observations

Time (EDT) Temp. Dew Point Humidity Pressure Visibility Wind Dir Wind Speed Gust Speed Precip Events Conditions
12:15 AM 57.2 °F 53.6 °F 88% 29.75 in 10.0 mi WSW 11.5 mph - N/A   Clear
12:36 AM 57.2 °F 51.8 °F 82% 29.75 in 10.0 mi WSW 13.8 mph - N/A   Clear
12:55 AM 55.4 °F 51.8 °F 88% 29.76 in 10.0 mi WSW 11.5 mph 18.4 mph N/A   Clear
1:15 AM 55.4 °F 51.8 °F 88% 29.77 in 10.0 mi West 12.7 mph - N/A   Clear
1:35 AM 55.4 °F 48.2 °F 77% 29.78 in 10.0 mi West 15.0 mph - N/A   Clear
1:55 AM 55.4 °F 46.4 °F 72% 29.78 in 10.0 mi West 13.8 mph - N/A   Clear
2:15 AM 55.4 °F 46.4 °F 72% 29.79 in 10.0 mi West 11.5 mph 19.6 mph N/A   Clear
2:35 AM 55.4 °F 46.4 °F 72% 29.79 in 10.0 mi West 12.7 mph - N/A   Clear
2:55 AM 55.4 °F 46.4 °F 72% 29.79 in 10.0 mi West 12.7 mph - N/A   Clear
3:15 AM 53.6 °F 46.4 °F 77% 29.79 in 10.0 mi West 12.7 mph - N/A   Clear
3:35 AM 53.6 °F 46.4 °F 77% 29.80 in 10.0 mi West 11.5 mph - N/A   Clear
3:55 AM 53.6 °F 46.4 °F 77% 29.80 in 10.0 mi West 11.5 mph - N/A   Clear
4:15 AM 53.6 °F 44.6 °F 72% 29.81 in 10.0 mi West 11.5 mph - N/A   Clear
4:35 AM 53.6 °F 46.4 °F 77% 29.81 in 10.0 mi West 11.5 mph - N/A   Clear
4:55 AM 53.6 °F 44.6 °F 72% 29.82 in 10.0 mi West 11.5 mph - N/A   Clear
5:15 AM 53.6 °F 44.6 °F 72% 29.83 in 10.0 mi West 9.2 mph - N/A   Clear
5:35 AM 53.6 °F 44.6 °F 72% 29.83 in 10.0 mi West 10.4 mph - N/A   Clear
5:55 AM 53.6 °F 44.6 °F 72% 29.83 in 10.0 mi West 11.5 mph - N/A   Clear
6:15 AM 53.6 °F 44.6 °F 72% 29.84 in 10.0 mi West 11.5 mph - N/A   Clear
6:35 AM 53.6 °F 44.6 °F 72% 29.84 in 10.0 mi West 13.8 mph - N/A   Clear
6:55 AM 51.8 °F 44.6 °F 76% 29.85 in 10.0 mi West 11.5 mph - N/A   Clear
7:15 AM 51.8 °F 44.6 °F 76% 29.86 in 10.0 mi West 10.4 mph - N/A   Clear
7:35 AM 53.6 °F 44.6 °F 72% 29.86 in 10.0 mi West 13.8 mph 17.3 mph N/A   Clear
7:55 AM 53.6 °F 44.6 °F 72% 29.86 in 10.0 mi West 12.7 mph - N/A   Clear
8:15 AM 53.6 °F 44.6 °F 72% 29.87 in 10.0 mi West 10.4 mph - N/A   Clear
8:36 AM 53.6 °F 44.6 °F 72% 29.87 in 10.0 mi West 10.4 mph - N/A   Clear
8:55 AM 53.6 °F 44.6 °F 72% 29.87 in 10.0 mi West 12.7 mph 18.4 mph N/A   Clear
9:15 AM 53.6 °F 42.8 °F 67% 29.88 in 10.0 mi West 13.8 mph 20.7 mph N/A   Clear
9:35 AM 53.6 °F 44.6 °F 72% 29.88 in 10.0 mi West 13.8 mph - N/A   Clear
9:56 AM 53.6 °F 44.6 °F 72% 29.88 in 10.0 mi West 13.8 mph 18.4 mph N/A   Clear
10:15 AM 55.4 °F 44.6 °F 67% 29.87 in 10.0 mi West 11.5 mph 16.1 mph N/A   Clear
10:35 AM 55.4 °F 44.6 °F 67% 29.87 in 10.0 mi West 15.0 mph - N/A   Clear
10:55 AM 57.2 °F 44.6 °F 63% 29.87 in 10.0 mi West 17.3 mph 20.7 mph N/A   Clear
11:15 AM 57.2 °F 44.6 °F 63% 29.88 in 10.0 mi West 16.1 mph - N/A   Clear
11:35 AM 57.2 °F 44.6 °F 63% 29.87 in 10.0 mi West 16.1 mph - N/A   Clear
11:55 AM 59.0 °F 44.6 °F 59% 29.87 in 10.0 mi West 15.0 mph - N/A   Clear
12:15 PM 59.0 °F 42.8 °F 55% 29.86 in 10.0 mi West 13.8 mph - N/A   Clear
12:35 PM 59.0 °F 44.6 °F 59% 29.86 in 10.0 mi West 13.8 mph - N/A   Clear
12:55 PM 60.8 °F 44.6 °F 55% 29.86 in 10.0 mi West 11.5 mph - N/A   Clear
1:15 PM 59.0 °F 42.8 °F 55% 29.85 in 10.0 mi WNW 9.2 mph - N/A   Clear
1:35 PM 60.8 °F 44.6 °F 55% 29.85 in 10.0 mi WNW 9.2 mph - N/A   Clear
1:55 PM 60.8 °F 46.4 °F 59% 29.84 in 10.0 mi West 13.8 mph - N/A   Clear
2:15 PM 60.8 °F 44.6 °F 55% 29.84 in 10.0 mi West 12.7 mph - N/A   Clear
2:35 PM 60.8 °F 46.4 °F 59% 29.84 in 10.0 mi West 12.7 mph - N/A   Clear
2:55 PM 60.8 °F 46.4 °F 59% 29.85 in 10.0 mi West 9.2 mph - N/A   Clear
3:15 PM 60.8 °F 44.6 °F 55% 29.85 in 10.0 mi West 10.4 mph - N/A   Clear
3:35 PM 60.8 °F 44.6 °F 55% 29.85 in 10.0 mi West 11.5 mph - N/A   Clear
3:55 PM 60.8 °F 44.6 °F 55% 29.85 in 10.0 mi West 9.2 mph - N/A   Partly Cloudy
4:15 PM 60.8 °F 44.6 °F 55% 29.84 in 10.0 mi West 9.2 mph - N/A   Mostly Cloudy
4:35 PM 60.8 °F 44.6 °F 55% 29.84 in 10.0 mi West 8.1 mph - N/A   Mostly Cloudy
4:55 PM 60.8 °F 46.4 °F 59% 29.84 in 10.0 mi West 8.1 mph - N/A   Scattered Clouds
5:15 PM 59.0 °F 44.6 °F 59% 29.84 in 10.0 mi West 9.2 mph - N/A   Clear
5:55 PM 57.2 °F 44.6 °F 63% 29.85 in 10.0 mi West 8.1 mph - N/A   Clear
6:15 PM 57.2 °F 44.6 °F 63% 29.86 in 10.0 mi West 9.2 mph - N/A   Clear
6:35 PM 55.4 °F 46.4 °F 72% 29.87 in 10.0 mi West 9.2 mph - N/A   Clear
6:55 PM 57.2 °F 44.6 °F 63% 29.87 in 10.0 mi West 11.5 mph - N/A   Mostly Cloudy
7:15 PM 57.2 °F 44.6 °F 63% 29.87 in 10.0 mi West 11.5 mph - N/A   Overcast
7:35 PM 57.2 °F 44.6 °F 63% 29.87 in 10.0 mi West 10.4 mph - N/A   Overcast
7:55 PM 57.2 °F 46.4 °F 67% 29.87 in 10.0 mi WSW 10.4 mph - N/A   Overcast
8:15 PM 55.4 °F 46.4 °F 72% 29.87 in 10.0 mi SW 8.1 mph - N/A   Mostly Cloudy
8:35 PM 55.4 °F 44.6 °F 67% 29.88 in 10.0 mi WSW 10.4 mph - N/A   Partly Cloudy
8:55 PM 55.4 °F 46.4 °F 72% 29.88 in 10.0 mi WSW 11.5 mph - N/A   Clear
9:16 PM 55.4 °F 44.6 °F 67% 29.88 in 10.0 mi WSW 10.4 mph - N/A   Clear
9:35 PM 55.4 °F 44.6 °F 67% 29.88 in 10.0 mi West 11.5 mph - N/A   Scattered Clouds
9:55 PM 57.2 °F 44.6 °F 63% 29.88 in 10.0 mi West 17.3 mph - N/A   Overcast
10:15 PM 57.2 °F 44.6 °F 63% 29.89 in 10.0 mi West 16.1 mph 19.6 mph N/A   Overcast
10:35 PM 57.2 °F 44.6 °F 63% 29.89 in 10.0 mi West 13.8 mph - N/A   Overcast
10:55 PM 55.4 °F 44.6 °F 67% 29.89 in 10.0 mi West 12.7 mph - N/A   Scattered Clouds
11:15 PM 55.4 °F 44.6 °F 67% 29.89 in 10.0 mi West 11.5 mph - N/A   Clear
11:35 PM 55.4 °F 44.6 °F 67% 29.89 in 10.0 mi West 13.8 mph 18.4 mph N/A   Clear
11:55 PM 55.4 °F 44.6 °F 67% 29.89 in 10.0 mi West 13.8 mph 19.6 mph N/A   Clear